| time (UTC) | temp F | wind direction | speed MPH | gust MPH | rain 1hr in | rain 24hr in | rain mn in | humidity % | barometer mb |
| 20260504185153 | 72 | 185 | 4.0 | 21.0 | 0.00 | 0.00 | 0.00 | 40 | 1010.9 |
| 20260504184650 | 74 | 141 | 2.0 | 17.0 | 0.00 | 0.00 | 0.00 | 41 | 1010.9 |
| 20260504184145 | 72 | 169 | 9.0 | 14.0 | 0.00 | 0.00 | 0.00 | 40 | 1010.8 |
| 20260504183642 | 73 | 152 | 7.0 | 14.0 | 0.00 | 0.00 | 0.00 | 39 | 1010.8 |
| 20260504183139 | 73 | 200 | 5.0 | 12.0 | 0.00 | 0.00 | 0.00 | 41 | 1011.1 |
| 20260504182637 | 72 | 213 | 3.0 | 25.0 | 0.00 | 0.00 | 0.00 | 40 | 1010.9 |
| 20260504182134 | 72 | 187 | 11.0 | 21.0 | 0.00 | 0.00 | 0.00 | 40 | 1011.2 |
| 20260504181632 | 71 | 180 | 4.0 | 19.0 | 0.00 | 0.00 | 0.00 | 40 | 1011.2 |
| 20260504181129 | 72 | 1 | 7.0 | 19.0 | 0.00 | 0.00 | 0.00 | 41 | 1011.2 |
| 20260504180628 | 71 | 275 | 6.0 | 22.0 | 0.00 | 0.00 | 0.00 | 40 | 1011.2 |
| 20260504180126 | 71 | 61 | 5.0 | 17.0 | 0.00 | 0.00 | 0.00 | 43 | 1011.2 |
| 20260504175623 | 71 | 174 | 6.0 | 15.0 | 0.00 | 0.00 | 0.00 | 41 | 1011.2 |
| 20260504175120 | 71 | 200 | 18.0 | 18.0 | 0.00 | 0.00 | 0.00 | 41 | 1011.2 |
| 20260504174618 | 72 | 208 | 8.0 | 22.0 | 0.00 | 0.00 | 0.00 | 41 | 1011.5 |
| 20260504174114 | 71 | 210 | 15.0 | 17.0 | 0.00 | 0.00 | 0.00 | 42 | 1011.5 |
| 20260504173611 | 69 | 176 | 5.0 | 18.0 | 0.00 | 0.00 | 0.00 | 43 | 1011.5 |
| 20260504173109 | 71 | 167 | 5.0 | 26.0 | 0.00 | 0.00 | 0.00 | 42 | 1011.4 |
| 20260504172605 | 70 | 29 | 4.0 | 13.0 | 0.00 | 0.00 | 0.00 | 43 | 1011.7 |
| 20260504172102 | 70 | 203 | 14.0 | 17.0 | 0.00 | 0.00 | 0.00 | 42 | 1011.7 |
| 20260504171558 | 70 | 268 | 6.0 | 24.0 | 0.00 | 0.00 | 0.00 | 42 | 1011.8 |
| 20260504171056 | 69 | 258 | 6.0 | 19.0 | 0.00 | 0.00 | 0.00 | 42 | 1011.9 |
| 20260504170551 | 69 | 54 | 5.0 | 17.0 | 0.00 | 0.00 | 0.00 | 43 | 1012.0 |
| 20260504150935 | 64 | 32 | 3.0 | 15.0 | 0.00 | 0.00 | 0.00 | 42 | 1013.4 |
| 20260504150432 | 64 | 60 | 6.0 | 14.0 | 0.00 | 0.00 | 0.00 | 42 | 1013.3 |
| 20260504140858 | 61 | 106 | 5.0 | 15.0 | 0.00 | 0.00 | 0.00 | 46 | 1013.8 |
| 20260504140354 | 60 | 137 | 3.0 | 17.0 | 0.00 | 0.00 | 0.00 | 45 | 1014.1 |
| 20260504130319 | 53 | 214 | 2.0 | 8.0 | 0.00 | 0.00 | 0.00 | 58 | 1014.7 |
| 20260504120238 | 48 | 128 | 3.0 | 4.0 | 0.00 | 0.00 | 0.00 | 70 | 1014.8 |
| 20260504110705 | 41 | 128 | 1.0 | 2.0 | 0.00 | 0.00 | 0.00 | 84 | 1015.1 |
| 20260504110201 | 40 | 47 | 1.0 | 2.0 | 0.00 | 0.00 | 0.00 | 87 | 1014.8 |
| 20260504100125 | 35 | 75 | 0.0 | 3.0 | 0.00 | 0.00 | 0.00 | 94 | 1014.5 |
| 20260504081518 | 37 | 46 | 0.0 | 2.0 | 0.00 | 0.00 | 0.00 | 89 | 1014.8 |
| 20260504081013 | 37 | 23 | 0.0 | 3.0 | 0.00 | 0.00 | 0.00 | 89 | 1014.8 |
| 20260504080509 | 37 | 345 | 2.0 | 2.0 | 0.00 | 0.00 | 0.00 | 90 | 1014.7 |
| 20260504050317 | 42 | 27 | 0.0 | 2.0 | 0.00 | 0.00 | 0.00 | 81 | 1014.7 |
| 20260504045814 | 42 | 89 | 0.0 | 2.0 | 0.00 | 0.00 | 0.00 | 79 | 1014.8 |
| 20260504045314 | 43 | 44 | 1.0 | 2.0 | 0.00 | 0.00 | 0.00 | 78 | 1014.9 |
| 20260504044812 | 43 | 53 | 1.0 | 2.0 | 0.00 | 0.00 | 0.00 | 75 | 1014.6 |
| 20260504044309 | 43 | 15 | 0.0 | 2.0 | 0.00 | 0.00 | 0.00 | 74 | 1014.7 |
| 20260504043806 | 43 | 288 | 0.0 | 3.0 | 0.00 | 0.00 | 0.00 | 74 | 1014.7 |
| 20260504043303 | 44 | 328 | 0.0 | 3.0 | 0.00 | 0.00 | 0.00 | 73 | 1014.5 |
| 20260504042801 | 44 | 173 | 0.0 | 2.0 | 0.00 | 0.00 | 0.00 | 74 | 1014.5 |
| 20260504042257 | 44 | 58 | 0.0 | 1.0 | 0.00 | 0.00 | 0.00 | 73 | 1014.4 |
| 20260504041753 | 44 | 39 | 0.0 | 2.0 | 0.00 | 0.00 | 0.00 | 71 | 1014.5 |
| 20260504041249 | 45 | 89 | 1.0 | 3.0 | 0.00 | 0.00 | 0.00 | 71 | 1014.4 |
| 20260504040745 | 45 | 142 | 0.0 | 2.0 | 0.00 | 0.00 | 0.00 | 69 | 1014.5 |
| 20260504040243 | 46 | 103 | 0.0 | 3.0 | 0.00 | 0.00 | 0.00 | 66 | 1014.4 |
| 20260504035739 | 46 | 24 | 1.0 | 2.0 | 0.00 | 0.00 | 0.00 | 65 | 1014.3 |
| 20260504035236 | 47 | 185 | 1.0 | 7.0 | 0.00 | 0.00 | 0.00 | 65 | 1014.4 |
| 20260504034734 | 47 | 10 | 0.0 | 3.0 | 0.00 | 0.00 | 0.00 | 64 | 1014.3 |
| 20260504034231 | 47 | 211 | 1.0 | 3.0 | 0.00 | 0.00 | 0.00 | 65 | 1014.4 |
| 20260504033729 | 46 | 30 | 1.0 | 4.0 | 0.00 | 0.00 | 0.00 | 66 | 1014.4 |
| 20260504033226 | 46 | 143 | 2.0 | 3.0 | 0.00 | 0.00 | 0.00 | 67 | 1014.3 |
| 20260504032723 | 46 | 269 | 0.0 | 3.0 | 0.00 | 0.00 | 0.00 | 66 | 1014.3 |
| 20260504032220 | 46 | 335 | 0.0 | 3.0 | 0.00 | 0.00 | 0.00 | 66 | 1014.2 |
| 20260504031716 | 46 | 125 | 0.0 | 3.0 | 0.00 | 0.00 | 0.00 | 67 | 1014.5 |
| 20260504031214 | 45 | 239 | 0.0 | 4.0 | 0.00 | 0.00 | 0.00 | 68 | 1014.5 |
| 20260504030709 | 45 | 323 | 1.0 | 3.0 | 0.00 | 0.00 | 0.00 | 71 | 1014.3 |
| 20260504030207 | 44 | 196 | 2.0 | 3.0 | 0.00 | 0.00 | 0.00 | 73 | 1014.2 |
| 20260504025703 | 44 | 53 | 0.0 | 2.0 | 0.00 | 0.00 | 0.00 | 72 | 1014.4 |
| 20260504025200 | 44 | 304 | 0.0 | 3.0 | 0.00 | 0.00 | 0.00 | 74 | 1014.3 |
| 20260504024657 | 44 | 197 | 0.0 | 2.0 | 0.00 | 0.00 | 0.00 | 74 | 1014.2 |
| 20260504024153 | 44 | 204 | 1.0 | 3.0 | 0.00 | 0.00 | 0.00 | 73 | 1014.3 |
| 20260504023650 | 44 | 352 | 0.0 | 2.0 | 0.00 | 0.00 | 0.00 | 75 | 1014.2 |
| 20260504023146 | 44 | 152 | 0.0 | 2.0 | 0.00 | 0.00 | 0.00 | 75 | 1014.2 |
| 20260504022643 | 44 | 1 | 1.0 | 2.0 | 0.00 | 0.00 | 0.00 | 75 | 1014.2 |
| 20260504022138 | 44 | 44 | 1.0 | 2.0 | 0.00 | 0.00 | 0.00 | 73 | 1014.3 |
| 20260504021637 | 44 | 60 | 0.0 | 2.0 | 0.00 | 0.00 | 0.00 | 74 | 1014.3 |
| 20260504021133 | 45 | 336 | 0.0 | 2.0 | 0.00 | 0.00 | 0.00 | 71 | 1014.2 |
| 20260504020630 | 44 | 114 | 0.0 | 3.0 | 0.00 | 0.00 | 0.00 | 73 | 1014.2 |
| 20260504020126 | 45 | 28 | 2.0 | 2.0 | 0.00 | 0.00 | 0.00 | 73 | 1014.3 |
| 20260504015623 | 45 | 246 | 1.0 | 2.0 | 0.00 | 0.00 | 0.00 | 71 | 1014.2 |
| 20260504015119 | 44 | 144 | 0.0 | 2.0 | 0.00 | 0.00 | 0.00 | 73 | 1014.1 |
| 20260504014615 | 45 | 45 | 2.0 | 3.0 | 0.00 | 0.00 | 0.00 | 73 | 1014.2 |
| 20260504014113 | 45 | 166 | 0.0 | 3.0 | 0.00 | 0.00 | 0.00 | 73 | 1014.2 |
| 20260504013610 | 45 | 135 | 0.0 | 2.0 | 0.00 | 0.00 | 0.00 | 72 | 1014.1 |
| 20260504013107 | 45 | 62 | 0.0 | 2.0 | 0.00 | 0.00 | 0.00 | 72 | 1014.2 |
| 20260504012604 | 45 | 89 | 0.0 | 3.0 | 0.00 | 0.00 | 0.00 | 70 | 1014.1 |
| 20260504012102 | 46 | 165 | 0.0 | 1.0 | 0.00 | 0.00 | 0.00 | 70 | 1013.9 |
| 20260504011559 | 46 | 218 | 0.0 | 2.0 | 0.00 | 0.00 | 0.00 | 69 | 1013.9 |
| 20260504011055 | 47 | 334 | 2.0 | 3.0 | 0.00 | 0.00 | 0.00 | 66 | 1013.7 |
| 20260504010550 | 48 | 345 | 1.0 | 4.0 | 0.00 | 0.00 | 0.00 | 63 | 1013.8 |
| 20260504010047 | 48 | 18 | 2.0 | 3.0 | 0.00 | 0.00 | 0.00 | 65 | 1013.7 |
| 20260504005543 | 49 | 269 | 0.0 | 3.0 | 0.00 | 0.00 | 0.00 | 60 | 1013.6 |
| 20260504005041 | 50 | 315 | 2.0 | 3.0 | 0.00 | 0.00 | 0.00 | 57 | 1013.8 |
| 20260504004539 | 50 | 49 | 1.0 | 2.0 | 0.00 | 0.00 | 0.00 | 60 | 1013.7 |
| 20260504004036 | 51 | 64 | 1.0 | 2.0 | 0.00 | 0.00 | 0.00 | 55 | 1013.7 |
| 20260504003532 | 51 | 112 | 0.0 | 2.0 | 0.00 | 0.00 | 0.00 | 54 | 1013.8 |
| 20260504003029 | 51 | 70 | 0.0 | 3.0 | 0.00 | 0.00 | 0.00 | 54 | 1013.6 |
| 20260504002525 | 52 | 53 | 2.0 | 2.0 | 0.00 | 0.00 | 0.00 | 53 | 1013.4 |
| 20260504002023 | 53 | 5 | 3.0 | 3.0 | 0.00 | 0.00 | 0.00 | 50 | 1013.5 |
| 20260504001521 | 53 | 359 | 1.0 | 4.0 | 0.00 | 0.00 | 0.00 | 49 | 1013.1 |
| 20260504001016 | 53 | 77 | 0.0 | 3.0 | 0.00 | 0.00 | 0.00 | 51 | 1013.4 |
| 20260504000514 | 54 | 331 | 2.0 | 3.0 | 0.00 | 0.00 | 0.00 | 46 | 1013.3 |
| 20260504000011 | 55 | 96 | 2.0 | 4.0 | 0.00 | 0.00 | 0.00 | 47 | 1013.3 |
| 20260503235509 | 55 | 40 | 0.0 | 5.0 | 0.00 | 0.00 | 0.00 | 46 | 1013.3 |
| 20260503235006 | 56 | 66 | 2.0 | 4.0 | 0.00 | 0.00 | 0.00 | 44 | 1013.1 |
| 20260503234503 | 56 | 128 | 1.0 | 6.0 | 0.00 | 0.00 | 0.00 | 43 | 1013.2 |
| 20260503234002 | 57 | 182 | 3.0 | 7.0 | 0.00 | 0.00 | 0.00 | 43 | 1013.2 |
| 20260503233457 | 57 | 356 | 2.0 | 5.0 | 0.00 | 0.00 | 0.00 | 44 | 1013.1 |
| 20260503232954 | 57 | 51 | 2.0 | 6.0 | 0.00 | 0.00 | 0.00 | 43 | 1013.0 |
| 20260503232451 | 57 | 197 | 3.0 | 5.0 | 0.00 | 0.00 | 0.00 | 41 | 1012.8 |
| 20260503231949 | 57 | 351 | 3.0 | 8.0 | 0.00 | 0.00 | 0.00 | 42 | 1013.0 |
| 20260503231446 | 57 | 7 | 1.0 | 7.0 | 0.00 | 0.00 | 0.00 | 41 | 1012.9 |
| 20260503230942 | 58 | 53 | 3.0 | 7.0 | 0.00 | 0.00 | 0.00 | 41 | 1013.1 |
| 20260503230439 | 58 | 182 | 3.0 | 8.0 | 0.00 | 0.00 | 0.00 | 41 | 1013.0 |
| 20260503225937 | 58 | 98 | 5.0 | 13.0 | 0.00 | 0.00 | 0.00 | 41 | 1013.0 |
| 20260503225433 | 59 | 5 | 1.0 | 5.0 | 0.00 | 0.00 | 0.00 | 40 | 1012.7 |
| 20260503224929 | 60 | 297 | 3.0 | 11.0 | 0.00 | 0.00 | 0.00 | 39 | 1012.8 |
| 20260503224426 | 61 | 265 | 5.0 | 19.0 | 0.00 | 0.00 | 0.00 | 37 | 1012.9 |
| 20260503223924 | 60 | 138 | 1.0 | 5.0 | 0.00 | 0.00 | 0.00 | 40 | 1012.9 |
| 20260503223422 | 59 | 274 | 2.0 | 17.0 | 0.00 | 0.00 | 0.00 | 40 | 1012.8 |
| 20260503222917 | 59 | 81 | 1.0 | 11.0 | 0.00 | 0.00 | 0.00 | 39 | 1013.0 |
| 20260503222415 | 60 | 304 | 6.0 | 7.0 | 0.00 | 0.00 | 0.00 | 38 | 1012.7 |
| 20260503221914 | 59 | 306 | 9.0 | 10.0 | 0.00 | 0.00 | 0.00 | 38 | 1012.9 |
| 20260503221412 | 59 | 16 | 3.0 | 15.0 | 0.00 | 0.00 | 0.00 | 39 | 1012.8 |
| 20260503220908 | 61 | 298 | 6.0 | 13.0 | 0.00 | 0.00 | 0.00 | 36 | 1012.9 |
| 20260503220404 | 62 | 321 | 4.0 | 16.0 | 0.00 | 0.00 | 0.00 | 37 | 1012.9 |
| 20260503215901 | 62 | 259 | 10.0 | 15.0 | 0.00 | 0.00 | 0.00 | 35 | 1012.9 |
| 20260503215358 | 61 | 35 | 3.0 | 11.0 | 0.00 | 0.00 | 0.00 | 37 | 1012.8 |
| 20260503214856 | 61 | 295 | 5.0 | 12.0 | 0.00 | 0.00 | 0.00 | 37 | 1013.0 |
| 20260503214353 | 61 | 27 | 2.0 | 16.0 | 0.00 | 0.00 | 0.00 | 38 | 1012.8 |
| 20260503213850 | 61 | 242 | 12.0 | 19.0 | 0.00 | 0.00 | 0.00 | 36 | 1012.7 |
| 20260503213348 | 63 | 339 | 5.0 | 17.0 | 0.00 | 0.00 | 0.00 | 35 | 1012.7 |
| 20260503212845 | 63 | 11 | 3.0 | 9.0 | 0.00 | 0.00 | 0.00 | 36 | 1012.8 |
| 20260503212343 | 62 | 230 | 2.0 | 8.0 | 0.00 | 0.00 | 0.00 | 35 | 1012.4 |
| 20260503211839 | 61 | 294 | 4.0 | 10.0 | 0.00 | 0.00 | 0.00 | 35 | 1012.7 |
| 20260503211336 | 59 | 28 | 2.0 | 10.0 | 0.00 | 0.00 | 0.00 | 38 | 1012.4 |
| 20260503210831 | 59 | 72 | 5.0 | 9.0 | 0.00 | 0.00 | 0.00 | 38 | 1012.6 |
| 20260503210329 | 59 | 277 | 2.0 | 10.0 | 0.00 | 0.00 | 0.00 | 37 | 1012.6 |
| 20260503205824 | 59 | 33 | 1.0 | 10.0 | 0.00 | 0.00 | 0.00 | 40 | 1012.6 |
| 20260503205321 | 59 | 283 | 4.0 | 15.0 | 0.00 | 0.00 | 0.00 | 36 | 1012.7 |
| 20260503204817 | 58 | 347 | 4.0 | 11.0 | 0.00 | 0.00 | 0.00 | 37 | 1012.6 |
| 20260503204315 | 58 | 261 | 11.0 | 13.0 | 0.00 | 0.00 | 0.00 | 36 | 1012.6 |
| 20260503203812 | 58 | 56 | 7.0 | 13.0 | 0.00 | 0.00 | 0.00 | 37 | 1012.5 |
| 20260503203309 | 58 | 264 | 7.0 | 15.0 | 0.00 | 0.00 | 0.00 | 36 | 1012.7 |
| 20260503202806 | 58 | 199 | 2.0 | 17.0 | 0.00 | 0.00 | 0.00 | 37 | 1012.7 |
| 20260503202304 | 58 | 291 | 4.0 | 20.0 | 0.00 | 0.00 | 0.00 | 35 | 1012.5 |
| 20260503201802 | 59 | 43 | 5.0 | 10.0 | 0.00 | 0.00 | 0.00 | 37 | 1012.6 |
| 20260503201259 | 60 | 169 | 3.0 | 16.0 | 0.00 | 0.00 | 0.00 | 36 | 1012.7 |
| 20260503200756 | 59 | 297 | 9.0 | 13.0 | 0.00 | 0.00 | 0.00 | 35 | 1012.6 |
| 20260503200251 | 59 | 230 | 16.0 | 17.0 | 0.00 | 0.00 | 0.00 | 34 | 1012.9 |
| 20260503195743 | 59 | 323 | 5.0 | 17.0 | 0.00 | 0.00 | 0.00 | 35 | 1012.9 |
| 20260503195240 | 59 | 48 | 5.0 | 23.0 | 0.00 | 0.00 | 0.00 | 36 | 1013.0 |
| 20260503194738 | 60 | 257 | 6.0 | 14.0 | 0.00 | 0.00 | 0.00 | 35 | 1012.6 |
| 20260503194233 | 60 | 11 | 14.0 | 22.0 | 0.00 | 0.00 | 0.00 | 34 | 1012.9 |
| 20260503193729 | 61 | 325 | 4.0 | 10.0 | 0.00 | 0.00 | 0.00 | 33 | 1013.0 |
| 20260503193226 | 59 | 248 | 4.0 | 16.0 | 0.00 | 0.00 | 0.00 | 34 | 1013.1 |
| 20260503192721 | 59 | 331 | 4.0 | 9.0 | 0.00 | 0.00 | 0.00 | 36 | 1013.2 |
| 20260503192217 | 59 | 71 | 4.0 | 20.0 | 0.00 | 0.00 | 0.00 | 35 | 1013.1 |
| 20260503191714 | 59 | 101 | 7.0 | 22.0 | 0.00 | 0.00 | 0.00 | 36 | 1013.3 |
| 20260503191211 | 60 | 297 | 4.0 | 10.0 | 0.00 | 0.00 | 0.00 | 32 | 1013.4 |
| 20260503190708 | 60 | 332 | 3.0 | 18.0 | 0.00 | 0.00 | 0.00 | 33 | 1013.4 |
| 20260503190204 | 60 | 255 | 6.0 | 10.0 | 0.00 | 0.00 | 0.00 | 32 | 1013.3 |
| 20260503185702 | 59 | 72 | 4.0 | 12.0 | 0.00 | 0.00 | 0.00 | 36 | 1013.6 |